TimeEDT,TemperatureF,Dew PointF,Humidity,Sea Level PressureIn,VisibilityMPH,Wind Direction,Wind SpeedMPH,Gust SpeedMPH,PrecipitationIn,Events,Conditions,WindDirDegrees,DateUTC
12:50 AM,60.8,59.0,94,29.88,4.0,South,19.6,25.3,0.00,,Overcast,170,2013-05-24 04:50:00
12:53 AM,61.0,59.0,93,29.88,4.0,South,18.4,-,0.00,,Overcast,170,2013-05-24 04:53:00
1:12 AM,60.8,59.0,94,29.88,2.0,South,16.1,-,0.06,Rain,Rain,180,2013-05-24 05:12:00
1:20 AM,62.6,60.8,94,29.88,1.5,South,23.0,33.4,0.15,Rain,Heavy Rain,180,2013-05-24 05:20:00
1:30 AM,62.6,60.8,94,29.87,2.0,South,21.9,32.2,0.20,Rain,Rain,170,2013-05-24 05:30:00
1:48 AM,62.6,60.8,94,29.87,3.0,South,17.3,26.5,0.26,Rain,Rain,180,2013-05-24 05:48:00
1:49 AM,62.1,60.1,93,29.87,3.0,South,16.1,23.0,0.26,Rain,Light Rain,170,2013-05-24 05:49:00
2:03 AM,60.8,57.2,88,29.86,2.5,South,15.0,-,0.02,Rain,Light Rain,170,2013-05-24 06:03:00
2:22 AM,60.8,57.2,88,29.85,3.0,South,15.0,-,0.05,Rain,Light Rain,170,2013-05-24 06:22:00
2:53 AM,61.0,57.9,90,29.83,3.0,SSE,17.3,-,0.08,Rain,Light Rain,160,2013-05-24 06:53:00
3:53 AM,62.1,59.0,90,29.77,4.0,SSE,23.0,29.9,0.03,Rain,Light Rain,160,2013-05-24 07:53:00
4:44 AM,62.6,59.0,88,29.73,1.8,SSE,29.9,38.0,0.12,Rain,Heavy Rain,160,2013-05-24 08:44:00
4:53 AM,62.1,60.1,93,29.74,1.5,SSE,29.9,43.7,0.18,Rain,Heavy Rain,160,2013-05-24 08:53:00
5:03 AM,62.6,60.8,94,29.74,2.0,South,31.1,43.7,0.04,Rain,Rain,170,2013-05-24 09:03:00
5:18 AM,62.6,60.8,94,29.75,3.0,South,28.8,42.6,0.05,,Overcast,170,2013-05-24 09:18:00
5:27 AM,62.6,60.8,94,29.76,2.5,South,26.5,38.0,0.07,Rain,Rain,170,2013-05-24 09:27:00
5:36 AM,62.6,60.8,94,29.76,3.0,South,26.5,36.8,0.07,Rain,Light Rain,180,2013-05-24 09:36:00
5:46 AM,62.6,60.8,94,29.76,2.0,South,24.2,41.4,0.12,Rain,Rain,180,2013-05-24 09:46:00
5:53 AM,62.1,60.1,93,29.75,1.5,South,24.2,35.7,0.17,Rain,Rain,180,2013-05-24 09:53:00
6:26 AM,60.8,59.0,94,29.77,1.0,South,23.0,33.4,0.15,Rain,Rain,180,2013-05-24 10:26:00
6:53 AM,62.1,60.1,93,29.77,2.5,South,26.5,40.3,0.23,Rain,Light Rain,190,2013-05-24 10:53:00
7:26 AM,62.6,60.8,94,29.77,1.2,South,21.9,32.2,0.04,Rain,Rain,190,2013-05-24 11:26:00
7:37 AM,62.6,60.8,94,29.77,0.8,South,21.9,32.2,0.20,Rain,Heavy Rain,190,2013-05-24 11:37:00
7:44 AM,62.6,60.8,94,29.77,1.2,South,27.6,38.0,0.24,Rain,Heavy Rain,190,2013-05-24 11:44:00
7:53 AM,62.1,59.0,90,29.78,1.2,South,23.0,33.4,0.28,Rain,Light Rain,190,2013-05-24 11:53:00
8:53 AM,60.1,57.9,93,29.80,1.2,South,19.6,25.3,0.15,Rain,Heavy Rain,190,2013-05-24 12:53:00
9:53 AM,61.0,59.0,93,29.79,1.5,South,15.0,-,0.07,Rain,Light Rain,190,2013-05-24 13:53:00
10:53 AM,64.0,61.0,90,29.78,0.8,South,23.0,29.9,0.25,Rain,Heavy Rain,180,2013-05-24 14:53:00
11:03 AM,62.6,60.8,94,29.78,1.0,South,16.1,28.8,0.07,Rain,Heavy Rain,180,2013-05-24 15:03:00
11:33 AM,60.8,59.0,94,29.78,0.8,South,15.0,-,0.12,Rain,Light Rain,180,2013-05-24 15:33:00
11:53 AM,61.0,59.0,93,29.77,2.0,South,11.5,-,0.14,Rain,Light Rain,170,2013-05-24 15:53:00
12:48 PM,60.8,59.0,94,29.75,1.5,South,13.8,-,0.03,Rain,Light Rain,180,2013-05-24 16:48:00
12:53 PM,61.0,59.0,93,29.75,0.8,South,11.5,-,0.03,,Mist,180,2013-05-24 16:53:00
1:31 PM,60.8,59.0,94,29.75,0.2,SSW,11.5,-,0.00,Fog-Rain,Light Rain,200,2013-05-24 17:31:00
1:53 PM,60.1,57.9,93,29.76,0.2,SW,10.4,-,0.01,Fog-Rain,Light Rain,220,2013-05-24 17:53:00
2:04 PM,59.0,57.2,94,29.76,0.2,SSW,10.4,-,0.00,Fog,Fog,210,2013-05-24 18:04:00
2:37 PM,60.8,57.2,88,29.75,1.0,SSW,6.9,-,0.00,Rain,Light Rain,210,2013-05-24 18:37:00
2:53 PM,60.1,57.0,90,29.75,1.5,SSW,9.2,-,0.00,,Overcast,210,2013-05-24 18:53:00
3:14 PM,59.0,57.2,94,29.75,0.5,South,8.1,-,N/A,Fog,Fog,180,2013-05-24 19:14:00
3:53 PM,57.9,57.0,97,29.76,0.8,South,8.1,-,0.04,Rain,Rain,190,2013-05-24 19:53:00
4:32 PM,60.8,59.0,94,29.74,1.0,South,5.8,-,0.05,Rain,Rain,180,2013-05-24 20:32:00
4:53 PM,61.0,59.0,93,29.75,1.0,South,4.6,-,0.08,Rain,Light Rain,170,2013-05-24 20:53:00
5:04 PM,60.8,57.2,88,29.74,0.5,ESE,5.8,-,0.00,Fog-Rain,Light Rain,120,2013-05-24 21:04:00
5:20 PM,60.8,57.2,88,29.75,0.2,South,3.5,-,0.00,Fog-Rain,Light Rain,170,2013-05-24 21:20:00
5:35 PM,60.8,57.2,88,29.75,0.8,South,5.8,-,0.07,Rain,Heavy Rain,180,2013-05-24 21:35:00
5:53 PM,61.0,59.0,93,29.74,0.8,Calm,Calm,-,0.12,Rain,Rain,0,2013-05-24 21:53:00
6:53 PM,60.1,57.9,93,29.74,0.5,SSE,5.8,-,0.06,Fog-Rain,Light Rain,160,2013-05-24 22:53:00
7:33 PM,57.2,57.2,100,29.74,0.2,South,5.8,-,0.01,Fog,Fog,170,2013-05-24 23:33:00
7:53 PM,57.9,55.9,93,29.75,0.2,SSW,4.6,-,0.01,Fog,Fog,200,2013-05-24 23:53:00
8:22 PM,57.2,55.4,94,29.74,0.5,Calm,Calm,-,N/A,Fog,Fog,0,2013-05-25 00:22:00
8:53 PM,57.9,55.9,93,29.74,0.8,SW,3.5,-,N/A,,Overcast,220,2013-05-25 00:53:00
9:53 PM,57.9,55.9,93,29.75,1.2,Calm,Calm,-,0.00,Rain,Light Rain,0,2013-05-25 01:53:00
9:58 PM,57.2,55.4,94,29.75,1.8,Calm,Calm,-,0.00,Rain,Light Rain,0,2013-05-25 01:58:00
10:00 PM,57.2,55.4,94,29.75,2.0,Calm,Calm,-,0.00,Rain,Light Rain,0,2013-05-25 02:00:00
10:11 PM,57.2,55.4,94,29.75,2.5,Calm,Calm,-,0.00,Rain,Light Rain,0,2013-05-25 02:11:00
10:17 PM,59.0,55.4,88,29.75,3.0,Calm,Calm,-,0.00,Rain,Light Rain,0,2013-05-25 02:17:00
10:25 PM,59.0,55.4,88,29.74,3.0,Calm,Calm,-,0.00,,Overcast,0,2013-05-25 02:25:00
10:49 PM,60.8,57.2,88,29.74,2.0,NNW,8.1,-,0.01,Rain,Light Rain,330,2013-05-25 02:49:00
10:53 PM,61.0,59.0,93,29.74,2.0,NNW,12.7,18.4,0.01,Rain,Light Rain,330,2013-05-25 02:53:00
11:01 PM,60.8,57.2,88,29.74,7.0,NNW,15.0,-,0.00,,Overcast,340,2013-05-25 03:01:00
11:53 PM,57.9,55.0,90,29.73,8.0,North,17.3,-,0.00,,Overcast,360,2013-05-25 03:53:00